Liberty, SC

7:40 AM EDT on August 24, 2016 (GMT -0400)
Pickens County

Weather History for KLQK - January, 2014

Change the Weather History Date:

Saturday, January 18, 2014

  Actual Average Record
Temperature  
Mean Temperature 32 °F -  
Max Temperature 52 °F 52 °F 85 °F (2016)
Min Temperature 22 °F 32 °F 22 °F (2014)
Degree Days  
Heating Degree Days 33    
Moisture  
Dew Point 14 °F    
Average Humidity 48    
Maximum Humidity 67    
Minimum Humidity 29    
Precipitation  
Precipitation 0.00 in - - ()
Sea Level Pressure  
Sea Level Pressure 30.02 in    
Wind  
Wind Speed - (North)    
Max Wind Speed -    
Max Gust Speed -    
Visibility 10 miles    
Events      
Averages and records for this station are not official NWS values.
T = Trace of Precipitation, MM = Missing Value Source: NWS Daily Summary

Daily Weather History Graph

Daily Weather History Graph

Search for Another Location

Airport or City:

Trip Planner

Search our weather history database for the weather conditions in past years. The results will help you decide how hot, cold, wet, or windy it might be!

Date:

Astronomy

Jan. 18, 2014 Rise Set
Actual Time 7:36 AM EST 5:45 PM EST
Civil Twilight 7:09 AM EST 6:13 PM EST
Nautical Twilight 6:38 AM EST 6:44 PM EST
Astronomical Twilight 6:08 AM EST 7:14 PM EST
Moon 8:18 PM EST (1/18) 8:43 AM EST (1/18)
Length of Visible Light 11h 03m
Length of Day
10h 08m
Waning Gibbous, 94% of the Moon is Illuminated
Jan 18
Waning Gibbous
Jan 24
Last Quarter
Jan 30
New
Feb 6
First Quarter
Feb 14
Full

Hourly Weather History & Observations

Time (EST) Temp. Dew Point Humidity Pressure Visibility Wind Dir Wind Speed Gust Speed Precip Events Conditions
12:15 AM 32.2 °F 18.3 °F 57% 29.96 in 10.0 mi North - - N/A   Clear
12:35 AM 32.0 °F 18.0 °F 56% 29.95 in 10.0 mi North - - N/A   Clear
12:55 AM 31.3 °F 16.5 °F 54% 29.95 in 10.0 mi North - - N/A   Scattered Clouds
1:15 AM 31.1 °F 13.8 °F 49% 29.96 in 10.0 mi North - - N/A   Mostly Cloudy
1:35 AM 30.7 °F 12.9 °F 48% 29.96 in 10.0 mi North - - N/A   Mostly Cloudy
1:55 AM 29.8 °F 12.7 °F 49% 29.96 in 10.0 mi North - - N/A   Scattered Clouds
2:15 AM 30.2 °F 11.8 °F 47% 29.96 in 10.0 mi North - - N/A   Mostly Cloudy
2:35 AM 29.8 °F 10.4 °F 44% 29.97 in 10.0 mi North - - N/A   Mostly Cloudy
2:55 AM 27.9 °F 11.7 °F 51% 29.97 in 10.0 mi North - - N/A   Scattered Clouds
3:15 AM 27.1 °F 11.8 °F 53% 29.98 in 10.0 mi North - - N/A   Clear
3:35 AM 27.5 °F 11.1 °F 50% 29.99 in 10.0 mi North - - N/A   Clear
3:55 AM 27.9 °F 10.4 °F 48% 29.99 in 10.0 mi North - - N/A   Clear
4:15 AM 27.7 °F 10.0 °F 48% 29.99 in 10.0 mi North - - N/A   Clear
4:35 AM 27.0 °F 10.2 °F 49% 29.99 in 10.0 mi North - - N/A   Clear
4:55 AM 26.1 °F 10.8 °F 52% 30.00 in 10.0 mi North - - N/A   Clear
5:15 AM 25.3 °F 11.1 °F 55% 29.99 in 10.0 mi North - - N/A   Clear
5:35 AM 25.2 °F 11.7 °F 57% 30.00 in 10.0 mi North - - N/A   Clear
5:55 AM 24.8 °F 12.2 °F 59% 30.01 in 10.0 mi North - - N/A   Clear
6:15 AM 24.8 °F 12.0 °F 58% 30.01 in 10.0 mi North - - N/A   Clear
6:35 AM 23.9 °F 12.2 °F 61% 30.01 in 10.0 mi North - - N/A   Clear
6:55 AM 23.0 °F 12.7 °F 65% 30.01 in 10.0 mi North - - N/A   Clear
7:15 AM 22.8 °F 13.1 °F 66% 30.02 in 10.0 mi North - - N/A   Clear
7:35 AM 22.8 °F 13.1 °F 66% 30.03 in 10.0 mi North - - N/A   Clear
7:55 AM 23.0 °F 13.5 °F 67% 30.03 in 10.0 mi North - - N/A   Clear
8:15 AM 24.1 °F 13.8 °F 65% 30.04 in 10.0 mi North - - N/A   Clear
8:35 AM 26.1 °F 14.4 °F 61% 30.04 in 10.0 mi North - - N/A   Clear
8:55 AM 27.9 °F 14.9 °F 58% 30.06 in 10.0 mi North - - N/A   Clear
9:15 AM 29.1 °F 14.9 °F 55% 30.06 in 10.0 mi North - - N/A   Clear
9:35 AM 30.7 °F 14.9 °F 52% 30.07 in 10.0 mi North - - N/A   Clear
9:55 AM 31.6 °F 14.7 °F 50% 30.09 in 10.0 mi North - - N/A   Clear
10:15 AM 32.2 °F 14.5 °F 48% 30.11 in 10.0 mi North - - N/A   Clear
10:35 AM 33.1 °F 14.2 °F 46% 30.11 in 10.0 mi North - - N/A   Clear
10:55 AM 34.0 °F 14.2 °F 44% 30.11 in 10.0 mi North - - N/A   Clear
11:15 AM 34.5 °F 14.2 °F 43% 30.11 in 10.0 mi North - - N/A   Clear
11:35 AM 35.2 °F 14.2 °F 42% 30.10 in 10.0 mi North - - N/A   Clear
11:55 AM 36.1 °F 14.4 °F 41% 30.09 in 10.0 mi North - - N/A   Clear
12:15 PM 37.2 °F 14.7 °F 40% 30.07 in 10.0 mi North - - N/A   Clear
12:35 PM 38.5 °F 14.7 °F 38% 30.07 in 10.0 mi North - - N/A   Clear
12:55 PM 38.8 °F 14.5 °F 37% 30.06 in 10.0 mi North - - N/A   Clear
1:15 PM 39.9 °F 14.5 °F 36% 30.05 in 10.0 mi North - - N/A   Clear
1:35 PM 40.5 °F 14.5 °F 35% 30.03 in 10.0 mi North - - N/A   Clear
1:55 PM 41.0 °F 14.5 °F 34% 30.02 in 10.0 mi North - - N/A   Clear
2:15 PM 41.4 °F 14.5 °F 34% 30.01 in 10.0 mi North - - N/A   Clear
2:35 PM 41.9 °F 14.4 °F 33% 30.01 in 10.0 mi North - - N/A   Clear
2:55 PM 42.3 °F 13.8 °F 32% 30.01 in 10.0 mi North - - N/A   Clear
3:15 PM 42.1 °F 12.7 °F 30% 30.01 in 10.0 mi North - - N/A   Clear
3:35 PM 42.4 °F 12.2 °F 29% 30.01 in 10.0 mi North - - N/A   Clear
3:55 PM 42.6 °F 12.4 °F 29% 30.00 in 10.0 mi North - - N/A   Clear
4:15 PM 41.4 °F 15.1 °F 35% 30.01 in 10.0 mi North - - N/A   Clear
4:35 PM 40.5 °F 15.1 °F 36% 30.01 in 10.0 mi North - - N/A   Clear
4:55 PM 39.6 °F 14.7 °F 36% 30.01 in 10.0 mi North - - N/A   Clear
5:15 PM 39.0 °F 13.8 °F 36% 30.02 in 10.0 mi North - - N/A   Clear
5:35 PM 37.9 °F 13.5 °F 37% 30.01 in 10.0 mi North - - N/A   Clear
5:55 PM 36.7 °F 12.9 °F 38% 30.01 in 10.0 mi North - - N/A   Clear
6:15 PM 35.6 °F 12.7 °F 39% 30.01 in 10.0 mi North - - N/A   Clear
6:35 PM 34.9 °F 12.2 °F 39% 30.01 in 10.0 mi North - - N/A   Clear
6:55 PM 34.5 °F 12.6 °F 40% 30.00 in 10.0 mi North - - N/A   Clear
7:15 PM 34.3 °F 12.7 °F 41% 30.01 in 10.0 mi North - - N/A   Clear
7:35 PM 34.0 °F 12.9 °F 42% 30.00 in 10.0 mi North - - N/A   Scattered Clouds
7:55 PM 34.3 °F 13.3 °F 42% 30.00 in 10.0 mi North - - N/A   Mostly Cloudy
8:15 PM 33.8 °F 13.1 °F 43% 30.00 in 10.0 mi North - - N/A   Scattered Clouds
8:35 PM 32.9 °F 12.9 °F 44% 30.00 in 10.0 mi North - - N/A   Scattered Clouds
8:55 PM 32.5 °F 13.3 °F 45% 29.99 in 10.0 mi North - - N/A   Scattered Clouds
9:15 PM 31.8 °F 13.6 °F 47% 30.00 in 10.0 mi North - - N/A   Scattered Clouds
9:35 PM 30.6 °F 14.2 °F 51% 30.02 in 10.0 mi North - - N/A   Clear
9:55 PM 29.8 °F 16.0 °F 56% 30.01 in 10.0 mi North - - N/A   Mostly Cloudy
10:15 PM 30.2 °F 15.8 °F 55% 30.01 in 10.0 mi North - - N/A   Mostly Cloudy
10:35 PM 30.6 °F 16.7 °F 56% 30.01 in 10.0 mi North - - N/A   Mostly Cloudy
10:55 PM 29.8 °F 18.0 °F 61% 30.00 in 10.0 mi North - - N/A   Mostly Cloudy
11:15 PM 29.7 °F 17.1 °F 59% 29.99 in 10.0 mi North - - N/A   Scattered Clouds
11:35 PM 30.6 °F 17.1 °F 57% 29.99 in 10.0 mi North - - N/A   Clear
11:55 PM 28.8 °F 18.9 °F 67% 29.98 in 10.0 mi North - - N/A   Clear